| time (UTC) | temp C | wind direction | speed KPH | gust KPH | rain 1hr cm | rain 24hr cm | rain mn cm | humidity % | barometer mb |
| 20260904220058 | 23 | 176 | 0.0 | 0.0 | 0.00 | 0.81 | 0.81 | 77 | 1010.3 |
| 20260904215558 | 23 | 176 | 0.0 | 1.6 | 0.00 | 0.81 | 0.81 | 77 | 1010.6 |
| 20260904215054 | 23 | 175 | 0.0 | 1.6 | 0.00 | 0.81 | 0.81 | 76 | 1010.2 |
| 20260904214549 | 23 | 176 | 0.0 | 1.6 | 0.00 | 0.81 | 0.81 | 73 | 1010.4 |
| 20260904214044 | 24 | 156 | 3.2 | 3.2 | 0.00 | 0.81 | 0.81 | 71 | 1010.3 |
| 20260904213542 | 25 | 157 | 0.0 | 0.0 | 0.00 | 0.81 | 0.81 | 70 | 1010.3 |
| 20260904213039 | 25 | 103 | 0.0 | 1.6 | 0.00 | 0.81 | 0.81 | 71 | 1010.1 |
| 20260904212538 | 25 | 170 | 0.0 | 0.0 | 0.00 | 0.81 | 0.81 | 70 | 1010.1 |
| 20260904212028 | 25 | 207 | 0.0 | 0.0 | 0.00 | 0.81 | 0.81 | 69 | 1009.7 |
| 20260904211528 | 25 | 198 | 1.6 | 1.6 | 0.00 | 0.81 | 0.81 | 71 | 1010.1 |
| 20260904211023 | 25 | 198 | 0.0 | 1.6 | 0.00 | 0.81 | 0.81 | 72 | 1010.1 |
| 20260904210523 | 25 | 196 | 0.0 | 0.0 | 0.00 | 0.81 | 0.81 | 71 | 1009.8 |
| 20260904210019 | 25 | 197 | 0.0 | 1.6 | 0.00 | 0.81 | 0.81 | 71 | 1010.1 |
| 20260904205514 | 25 | 195 | 0.0 | 0.0 | 0.00 | 0.81 | 0.81 | 67 | 1010.2 |
| 20260904205011 | 26 | 220 | 3.2 | 3.2 | 0.00 | 0.81 | 0.81 | 66 | 1010.3 |
| 20260904204506 | 26 | 206 | 1.6 | 1.6 | 0.00 | 0.81 | 0.81 | 65 | 1010.1 |
| 20260904204002 | 26 | 225 | 1.6 | 3.2 | 0.00 | 0.81 | 0.81 | 64 | 1010.2 |
| 20260904203458 | 26 | 64 | 1.6 | 1.6 | 0.00 | 0.81 | 0.81 | 64 | 1010.4 |
| 20260904202954 | 26 | 212 | 1.6 | 3.2 | 0.00 | 0.81 | 0.81 | 68 | 1010.4 |
| 20260904202450 | 26 | 196 | 0.0 | 1.6 | 0.00 | 0.81 | 0.81 | 66 | 1010.5 |
| 20260904201946 | 26 | 223 | 0.0 | 1.6 | 0.00 | 0.81 | 0.81 | 68 | 1010.6 |
| 20260904201441 | 25 | 252 | 3.2 | 4.8 | 0.00 | 0.81 | 0.81 | 65 | 1010.8 |
| 20260904200936 | 26 | 145 | 0.0 | 0.0 | 0.00 | 0.81 | 0.81 | 66 | 1010.6 |
| 20260904200434 | 26 | 75 | 1.6 | 3.2 | 0.00 | 0.81 | 0.81 | 64 | 1010.6 |
| 20260904195930 | 26 | 234 | 1.6 | 1.6 | 0.00 | 0.81 | 0.81 | 66 | 1010.7 |
| 20260904195428 | 26 | 165 | 3.2 | 4.8 | 0.00 | 0.81 | 0.81 | 64 | 1010.7 |
| 20260904194927 | 26 | 244 | 0.0 | 1.6 | 0.00 | 0.81 | 0.81 | 68 | 1010.6 |
| 20260904194427 | 26 | 213 | 4.8 | 4.8 | 0.00 | 0.81 | 0.81 | 68 | 1010.7 |
| 20260904193922 | 25 | 202 | 3.2 | 4.8 | 0.00 | 0.81 | 0.81 | 66 | 1010.5 |
| 20260904193418 | 25 | 203 | 6.4 | 9.7 | 0.00 | 0.81 | 0.81 | 64 | 1010.5 |
| 20260904192913 | 26 | 204 | 8.0 | 12.9 | 0.00 | 0.81 | 0.81 | 64 | 1010.9 |
| 20260904192409 | 25 | 180 | 3.2 | 3.2 | 0.00 | 0.81 | 0.81 | 67 | 1010.8 |
| 20260904191905 | 25 | 174 | 8.0 | 9.7 | 0.00 | 0.81 | 0.81 | 65 | 1010.8 |
| 20260904191401 | 25 | 206 | 6.4 | 11.3 | 0.00 | 0.81 | 0.81 | 73 | 1011.0 |
| 20260904190857 | 26 | 155 | 1.6 | 3.2 | 0.00 | 0.81 | 0.81 | 67 | 1011.0 |
| 20260904190352 | 26 | 66 | 1.6 | 1.6 | 0.00 | 0.81 | 0.81 | 68 | 1010.8 |
| 20260904185849 | 26 | 135 | 1.6 | 1.6 | 0.00 | 0.81 | 0.81 | 68 | 1010.8 |
| 20260904185344 | 25 | 173 | 1.6 | 3.2 | 0.00 | 0.81 | 0.81 | 66 | 1010.9 |
| 20260904184844 | 26 | 166 | 1.6 | 3.2 | 0.00 | 0.81 | 0.81 | 67 | 1011.0 |
| 20260904184339 | 26 | 152 | 0.0 | 0.0 | 0.00 | 0.81 | 0.81 | 70 | 1011.2 |
| 20260904183834 | 26 | 183 | 3.2 | 4.8 | 0.00 | 0.81 | 0.81 | 64 | 1011.2 |
| 20260904183329 | 26 | 16 | 1.6 | 1.6 | 0.00 | 0.81 | 0.81 | 68 | 1011.2 |
| 20260904182824 | 26 | 197 | 3.2 | 3.2 | 0.00 | 0.81 | 0.81 | 70 | 1011.4 |
| 20260904182319 | 26 | 194 | 1.6 | 3.2 | 0.00 | 0.81 | 0.81 | 71 | 1011.1 |
| 20260904181815 | 26 | 184 | 0.0 | 0.0 | 0.00 | 0.81 | 0.81 | 68 | 1011.1 |
| 20260904181315 | 26 | 208 | 3.2 | 3.2 | 0.00 | 0.81 | 0.81 | 71 | 1011.1 |
| 20260904180810 | 26 | 126 | 0.0 | 0.0 | 0.00 | 0.81 | 0.81 | 73 | 1011.6 |
| 20260904180305 | 26 | 203 | 3.2 | 3.2 | 0.00 | 0.81 | 0.81 | 71 | 1011.3 |
| 20260904175804 | 25 | 358 | 1.6 | 3.2 | 0.00 | 0.81 | 0.81 | 71 | 1011.3 |
| 20260904175305 | 25 | 180 | 3.2 | 4.8 | 0.00 | 0.81 | 0.81 | 68 | 1011.1 |
| 20260904174758 | 25 | 255 | 3.2 | 6.4 | 0.00 | 0.81 | 0.81 | 73 | 1011.2 |
| 20260904174254 | 25 | 96 | 1.6 | 1.6 | 0.00 | 0.81 | 0.81 | 77 | 1011.2 |
| 20260904173749 | 26 | 103 | 4.8 | 6.4 | 0.00 | 0.81 | 0.81 | 71 | 1011.2 |
| 20260904173244 | 26 | 240 | 3.2 | 4.8 | 0.00 | 0.81 | 0.81 | 75 | 1011.3 |
| 20260904172741 | 25 | 225 | 3.2 | 4.8 | 0.00 | 0.81 | 0.81 | 73 | 1011.2 |
| 20260904172239 | 25 | 120 | 1.6 | 3.2 | 0.00 | 0.81 | 0.81 | 73 | 1011.2 |
| 20260904171734 | 25 | 210 | 1.6 | 3.2 | 0.00 | 0.81 | 0.81 | 71 | 1011.1 |
| 20260904171229 | 25 | 196 | 3.2 | 3.2 | 0.00 | 0.81 | 0.81 | 74 | 1011.1 |
| 20260904170725 | 25 | 141 | 1.6 | 3.2 | 0.00 | 0.81 | 0.81 | 73 | 1011.4 |
| 20260904170221 | 25 | 133 | 3.2 | 4.8 | 0.00 | 0.81 | 0.81 | 73 | 1011.4 |
| 20260904165720 | 25 | 19 | 3.2 | 4.8 | 0.00 | 0.81 | 0.81 | 73 | 1011.1 |
| 20260904165215 | 25 | 62 | 1.6 | 1.6 | 0.00 | 0.81 | 0.81 | 72 | 1011.1 |
| 20260904164709 | 25 | 108 | 0.0 | 1.6 | 0.00 | 0.81 | 0.81 | 75 | 1011.3 |
| 20260904164204 | 25 | 96 | 1.6 | 1.6 | 0.00 | 0.81 | 0.81 | 79 | 1011.2 |
| 20260904163700 | 25 | 86 | 1.6 | 1.6 | 0.00 | 0.81 | 0.81 | 74 | 1011.4 |
| 20260904163155 | 24 | 184 | 4.8 | 4.8 | 0.00 | 0.81 | 0.81 | 79 | 1011.1 |
| 20260904162654 | 24 | 133 | 0.0 | 1.6 | 0.00 | 0.81 | 0.81 | 77 | 1011.6 |
| 20260904162149 | 24 | 81 | 4.8 | 6.4 | 0.00 | 0.81 | 0.81 | 75 | 1011.5 |
| 20260904161645 | 25 | 26 | 0.0 | 1.6 | 0.00 | 0.81 | 0.81 | 77 | 1011.7 |
| 20260904161140 | 25 | 169 | 6.4 | 11.3 | 0.00 | 0.81 | 0.81 | 72 | 1011.8 |
| 20260904160636 | 25 | 74 | 1.6 | 3.2 | 0.00 | 0.81 | 0.81 | 72 | 1011.7 |
| 20260904160131 | 25 | 168 | 3.2 | 3.2 | 0.00 | 0.81 | 0.81 | 73 | 1011.6 |
| 20260904155626 | 25 | 222 | 3.2 | 4.8 | 0.00 | 0.81 | 0.81 | 73 | 1011.7 |
| 20260904155120 | 25 | 74 | 1.6 | 1.6 | 0.00 | 0.81 | 0.81 | 75 | 1011.7 |
| 20260904154613 | 24 | 78 | 3.2 | 4.8 | 0.00 | 0.81 | 0.81 | 71 | 1011.5 |
| 20260904154113 | 23 | 172 | 0.0 | 0.0 | 0.00 | 0.81 | 0.81 | 79 | 1011.6 |
| 20260904153608 | 23 | 104 | 1.6 | 1.6 | 0.00 | 0.81 | 0.81 | 80 | 1011.7 |
| 20260904153104 | 23 | 186 | 1.6 | 1.6 | 0.00 | 0.81 | 0.81 | 80 | 1011.9 |
| 20260904152600 | 23 | 156 | 1.6 | 3.2 | 0.00 | 0.81 | 0.81 | 81 | 1011.7 |
| 20260904152055 | 23 | 227 | 1.6 | 3.2 | 0.00 | 0.81 | 0.81 | 79 | 1011.7 |
| 20260904151550 | 23 | 125 | 3.2 | 4.8 | 0.00 | 0.81 | 0.81 | 77 | 1011.8 |
| 20260904151049 | 23 | 213 | 1.6 | 3.2 | 0.00 | 0.81 | 0.81 | 84 | 1011.8 |
| 20260904150544 | 23 | 167 | 4.8 | 4.8 | 0.00 | 0.81 | 0.81 | 79 | 1011.8 |
| 20260904150039 | 23 | 229 | 3.2 | 3.2 | 0.00 | 0.81 | 0.81 | 84 | 1011.7 |
| 20260904145538 | 24 | 189 | 3.2 | 4.8 | 0.00 | 0.81 | 0.81 | 81 | 1011.7 |
| 20260904145033 | 24 | 136 | 1.6 | 3.2 | 0.00 | 0.81 | 0.81 | 83 | 1011.8 |
| 20260904144529 | 23 | 334 | 1.6 | 3.2 | 0.00 | 0.81 | 0.81 | 83 | 1012.0 |
| 20260904144026 | 23 | 228 | 4.8 | 6.4 | 0.00 | 0.81 | 0.81 | 81 | 1011.9 |
| 20260904143521 | 23 | 251 | 3.2 | 4.8 | 0.00 | 0.81 | 0.81 | 87 | 1011.8 |
| 20260904143018 | 23 | 224 | 3.2 | 3.2 | 0.00 | 0.81 | 0.81 | 87 | 1011.8 |
| 20260904142514 | 23 | 160 | 3.2 | 3.2 | 0.00 | 0.81 | 0.81 | 82 | 1011.7 |
| 20260904142013 | 22 | 156 | 1.6 | 3.2 | 0.00 | 0.81 | 0.81 | 87 | 1012.0 |
| 20260904141508 | 22 | 268 | 1.6 | 4.8 | 0.00 | 0.81 | 0.81 | 90 | 1011.8 |
| 20260904141004 | 22 | 173 | 4.8 | 4.8 | 0.00 | 0.81 | 0.81 | 87 | 1011.6 |
| 20260904140459 | 22 | 155 | 1.6 | 1.6 | 0.00 | 0.81 | 0.81 | 91 | 1011.8 |
| 20260904135958 | 22 | 148 | 1.6 | 3.2 | 0.00 | 0.81 | 0.81 | 94 | 1011.5 |
| 20260904135452 | 21 | 203 | 1.6 | 3.2 | 0.00 | 0.81 | 0.81 | 97 | 1011.6 |
| 20260904134948 | 21 | 197 | 3.2 | 4.8 | 0.00 | 0.81 | 0.81 | 98 | 1011.8 |
| 20260904134443 | 20 | 177 | 1.6 | 3.2 | 0.00 | 0.81 | 0.81 | 99 | 1011.7 |
| 20260904133937 | 20 | 198 | 1.6 | 1.6 | 0.00 | 0.81 | 0.81 | 99 | 1011.6 |
| 20260904133432 | 20 | 194 | 3.2 | 3.2 | 0.00 | 0.81 | 0.81 | 99 | 1011.6 |
| 20260904132928 | 21 | 218 | 6.4 | 6.4 | 0.00 | 0.81 | 0.81 | 99 | 1011.7 |
| 20260904132423 | 20 | 175 | 0.0 | 1.6 | 0.00 | 0.81 | 0.81 | 99 | 1011.8 |
| 20260904131922 | 20 | 177 | 1.6 | 1.6 | 0.00 | 0.81 | 0.81 | 99 | 1011.5 |
| 20260904131418 | 20 | 154 | 1.6 | 1.6 | 0.00 | 0.81 | 0.81 | 99 | 1011.7 |
| 20260904130914 | 20 | 182 | 0.0 | 1.6 | 0.00 | 0.81 | 0.81 | 99 | 1011.9 |
| 20260904130412 | 20 | 193 | 3.2 | 3.2 | 0.00 | 0.81 | 0.81 | 99 | 1011.4 |
| 20260904125907 | 20 | 167 | 0.0 | 1.6 | 0.00 | 0.81 | 0.81 | 99 | 1011.6 |
| 20260904125404 | 20 | 174 | 1.6 | 1.6 | 0.00 | 0.81 | 0.81 | 99 | 1011.3 |
| 20260904124903 | 20 | 174 | 1.6 | 1.6 | 0.00 | 0.81 | 0.81 | 99 | 1011.4 |
| 20260904124400 | 20 | 192 | 3.2 | 3.2 | 0.00 | 0.81 | 0.81 | 99 | 1011.5 |
| 20260904123855 | 20 | 175 | 1.6 | 1.6 | 0.00 | 0.81 | 0.81 | 99 | 1011.7 |
| 20260904123349 | 20 | 174 | 1.6 | 1.6 | 0.00 | 0.81 | 0.81 | 99 | 1011.6 |
| 20260904122844 | 20 | 168 | 1.6 | 1.6 | 0.00 | 0.81 | 0.81 | 99 | 1011.7 |
| 20260904122338 | 20 | 170 | 1.6 | 1.6 | 0.00 | 0.81 | 0.81 | 99 | 1011.5 |
| 20260904121834 | 19 | 153 | 0.0 | 0.0 | 0.00 | 0.81 | 0.81 | 99 | 1011.6 |
| 20260904121330 | 19 | 170 | 1.6 | 1.6 | 0.00 | 0.81 | 0.81 | 99 | 1011.7 |
| 20260904120826 | 19 | 168 | 0.0 | 1.6 | 0.00 | 0.81 | 0.81 | 99 | 1011.7 |
| 20260904120322 | 19 | 168 | 1.6 | 1.6 | 0.00 | 0.81 | 0.81 | 99 | 1011.7 |
| 20260904115816 | 19 | 168 | 1.6 | 1.6 | 0.00 | 0.81 | 0.81 | 99 | 1011.6 |
| 20260904115312 | 18 | 165 | 1.6 | 1.6 | 0.00 | 0.81 | 0.81 | 99 | 1011.5 |
| 20260904114811 | 18 | 165 | 1.6 | 1.6 | 0.00 | 0.81 | 0.81 | 99 | 1011.5 |
| 20260904114306 | 18 | 160 | 0.0 | 0.0 | 0.00 | 0.81 | 0.81 | 99 | 1011.2 |
| 20260904113802 | 18 | 160 | 0.0 | 0.0 | 0.00 | 0.81 | 0.81 | 99 | 1011.2 |
| 20260904113300 | 18 | 161 | 1.6 | 1.6 | 0.00 | 0.81 | 0.81 | 99 | 1011.4 |
| 20260904112755 | 18 | 161 | 1.6 | 1.6 | 0.00 | 0.81 | 0.81 | 99 | 1011.2 |
| 20260904112251 | 18 | 157 | 1.6 | 1.6 | 0.00 | 0.81 | 0.81 | 99 | 1011.3 |
| 20260904111747 | 18 | 157 | 0.0 | 0.0 | 0.00 | 0.81 | 0.81 | 99 | 1011.1 |
| 20260904111242 | 18 | 157 | 0.0 | 0.0 | 0.00 | 0.81 | 0.81 | 99 | 1011.2 |
| 20260904110738 | 18 | 157 | 0.0 | 0.0 | 0.00 | 0.81 | 0.81 | 99 | 1011.3 |
| 20260904110237 | 18 | 156 | 0.0 | 0.0 | 0.00 | 0.81 | 0.81 | 99 | 1011.2 |
| 20260904105732 | 18 | 156 | 0.0 | 0.0 | 0.00 | 0.81 | 0.81 | 99 | 1011.1 |
| 20260904105227 | 18 | 156 | 0.0 | 0.0 | 0.00 | 0.81 | 0.81 | 99 | 1010.9 |
| 20260904104722 | 18 | 156 | 0.0 | 0.0 | 0.00 | 0.81 | 0.81 | 99 | 1011.0 |
| 20260904104218 | 18 | 163 | 0.0 | 0.0 | 0.00 | 0.81 | 0.81 | 99 | 1010.8 |
| 20260904103715 | 18 | 163 | 0.0 | 0.0 | 0.00 | 0.81 | 0.81 | 99 | 1011.0 |
| 20260904103209 | 18 | 163 | 1.6 | 1.6 | 0.00 | 0.81 | 0.81 | 99 | 1011.0 |
| 20260904102705 | 19 | 163 | 0.0 | 0.0 | 0.00 | 0.81 | 0.81 | 99 | 1011.2 |
| 20260904102200 | 18 | 167 | 3.2 | 3.2 | 0.00 | 0.81 | 0.81 | 99 | 1011.3 |
| 20260904101657 | 18 | 159 | 0.0 | 0.0 | 0.00 | 0.81 | 0.81 | 99 | 1010.8 |
| 20260904101152 | 18 | 159 | 1.6 | 1.6 | 0.00 | 0.81 | 0.81 | 99 | 1011.1 |
| 20260904100648 | 18 | 159 | 0.0 | 0.0 | 0.00 | 0.81 | 0.81 | 99 | 1011.1 |
| 20260904100143 | 18 | 159 | 0.0 | 1.6 | 0.00 | 0.81 | 0.81 | 99 | 1010.9 |
| 20260904095643 | 18 | 168 | 3.2 | 3.2 | 0.00 | 0.81 | 0.81 | 99 | 1010.9 |
| 20260904095137 | 18 | 172 | 0.0 | 1.6 | 0.00 | 0.81 | 0.81 | 99 | 1010.9 |
| 20260904094632 | 18 | 169 | 1.6 | 1.6 | 0.00 | 0.81 | 0.81 | 99 | 1010.9 |
| 20260904094127 | 18 | 170 | 1.6 | 3.2 | 0.00 | 0.81 | 0.81 | 99 | 1010.9 |
| 20260904093624 | 18 | 155 | 1.6 | 1.6 | 0.00 | 0.81 | 0.81 | 99 | 1010.6 |
| 20260904093124 | 18 | 166 | 1.6 | 1.6 | 0.00 | 0.81 | 0.81 | 99 | 1010.6 |
| 20260904092620 | 18 | 166 | 0.0 | 1.6 | 0.00 | 0.81 | 0.81 | 99 | 1010.5 |
| 20260904092116 | 18 | 166 | 0.0 | 0.0 | 0.00 | 0.81 | 0.81 | 99 | 1010.5 |
| 20260904091612 | 18 | 166 | 1.6 | 1.6 | 0.00 | 0.81 | 0.81 | 99 | 1010.4 |
| 20260904091111 | 18 | 166 | 0.0 | 0.0 | 0.00 | 0.81 | 0.81 | 99 | 1010.3 |
| 20260904090607 | 18 | 167 | 1.6 | 1.6 | 0.00 | 0.81 | 0.81 | 99 | 1010.2 |
| 20260904085603 | 18 | 154 | 0.0 | 0.0 | 0.00 | 0.81 | 0.81 | 99 | 1010.2 |
| 20260904085057 | 18 | 153 | 0.0 | 0.0 | 0.00 | 0.81 | 0.81 | 99 | 1010.5 |
| 20260904084553 | 19 | 154 | 0.0 | 1.6 | 0.00 | 0.81 | 0.81 | 99 | 1010.4 |
| 20260904084049 | 19 | 154 | 0.0 | 1.6 | 0.00 | 0.81 | 0.81 | 99 | 1010.4 |
| 20260904083544 | 19 | 154 | 1.6 | 1.6 | 0.00 | 0.81 | 0.81 | 99 | 1010.4 |
| 20260904083040 | 19 | 154 | 1.6 | 1.6 | 0.00 | 0.81 | 0.81 | 99 | 1010.6 |
| 20260904082535 | 19 | 154 | 0.0 | 1.6 | 0.00 | 0.81 | 0.81 | 99 | 1010.5 |
| 20260904082036 | 19 | 153 | 1.6 | 1.6 | 0.00 | 0.81 | 0.81 | 99 | 1010.4 |
| 20260904081531 | 19 | 153 | 0.0 | 0.0 | 0.00 | 0.81 | 0.81 | 99 | 1010.5 |
| 20260904081026 | 19 | 153 | 0.0 | 1.6 | 0.00 | 0.81 | 0.81 | 99 | 1010.3 |
| 20260904080522 | 19 | 154 | 1.6 | 1.6 | 0.00 | 0.81 | 0.81 | 99 | 1010.4 |
| 20260904080018 | 19 | 154 | 0.0 | 0.0 | 0.00 | 0.81 | 0.81 | 99 | 1010.2 |
| 20260904075514 | 19 | 153 | 0.0 | 1.6 | 0.00 | 0.81 | 0.81 | 99 | 1010.3 |
| 20260904075009 | 19 | 153 | 1.6 | 1.6 | 0.00 | 0.81 | 0.81 | 99 | 1010.1 |
| 20260904074503 | 19 | 153 | 1.6 | 1.6 | 0.00 | 0.81 | 0.81 | 99 | 1010.1 |
| 20260904073958 | 19 | 153 | 1.6 | 3.2 | 0.00 | 0.81 | 0.81 | 99 | 1009.8 |
| 20260904073454 | 19 | 155 | 1.6 | 3.2 | 0.00 | 0.81 | 0.81 | 99 | 1009.7 |
| 20260904072949 | 19 | 152 | 0.0 | 0.0 | 0.00 | 0.81 | 0.81 | 99 | 1009.8 |
| 20260904072444 | 19 | 152 | 0.0 | 0.0 | 0.00 | 0.81 | 0.81 | 99 | 1009.8 |
| 20260904071939 | 19 | 152 | 0.0 | 0.0 | 0.00 | 0.81 | 0.81 | 99 | 1009.9 |
| 20260904071435 | 19 | 152 | 0.0 | 0.0 | 0.00 | 0.81 | 0.81 | 99 | 1009.7 |
| 20260904070929 | 19 | 152 | 0.0 | 0.0 | 0.00 | 0.81 | 0.81 | 99 | 1009.8 |
| 20260904070428 | 19 | 152 | 0.0 | 0.0 | 0.00 | 0.81 | 0.81 | 99 | 1009.7 |
| 20260904065922 | 19 | 152 | 1.6 | 1.6 | 0.00 | 0.81 | 0.81 | 99 | 1010.1 |
| 20260904065419 | 19 | 152 | 0.0 | 0.0 | 0.00 | 0.81 | 0.81 | 99 | 1009.8 |
| 20260904064918 | 20 | 152 | 0.0 | 0.0 | 0.00 | 0.81 | 0.81 | 99 | 1010.1 |
| 20260904064415 | 20 | 153 | 0.0 | 0.0 | 0.00 | 0.81 | 0.81 | 99 | 1010.2 |
| 20260904063910 | 20 | 153 | 0.0 | 0.0 | 0.00 | 0.81 | 0.81 | 99 | 1010.6 |
| 20260904063407 | 20 | 153 | 0.0 | 1.6 | 0.00 | 0.81 | 0.81 | 99 | 1010.7 |
| 20260904062901 | 20 | 139 | 1.6 | 1.6 | 0.13 | 0.81 | 0.81 | 99 | 1010.6 |
| 20260904062357 | 20 | 65 | 1.6 | 3.2 | 0.13 | 0.81 | 0.81 | 99 | 1010.6 |
| 20260904061853 | 20 | 120 | 1.6 | 1.6 | 0.18 | 0.79 | 0.79 | 99 | 1010.6 |
| 20260904061349 | 20 | 98 | 6.4 | 6.4 | 0.48 | 0.79 | 0.79 | 99 | 1010.7 |
| 20260904060845 | 20 | 37 | 1.6 | 3.2 | 0.61 | 0.76 | 0.76 | 99 | 1011.1 |
| 20260904060341 | 20 | 157 | 0.0 | 0.0 | 0.30 | 0.71 | 0.71 | 99 | 1011.1 |
| 20260904055836 | 20 | 141 | 0.0 | 1.6 | 0.00 | 0.66 | 0.66 | 99 | 1011.1 |
| 20260904055331 | 20 | 152 | 0.0 | 0.0 | 0.00 | 0.66 | 0.66 | 99 | 1010.9 |
| 20260904054827 | 20 | 138 | 0.0 | 0.0 | 0.18 | 0.66 | 0.66 | 99 | 1010.5 |
| 20260904054323 | 20 | 142 | 1.6 | 1.6 | 2.59 | 0.66 | 0.66 | 99 | 1010.5 |
| 20260904053818 | 20 | 169 | 1.6 | 1.6 | 3.66 | 0.64 | 0.64 | 99 | 1010.4 |
| 20260904053317 | 21 | 129 | 4.8 | 4.8 | 2.29 | 0.38 | 0.38 | 99 | 1010.9 |
| 20260904052813 | 21 | 192 | 1.6 | 1.6 | 0.13 | 0.03 | 0.03 | 99 | 1010.9 |
| 20260904052309 | 21 | 157 | 0.0 | 0.0 | 0.00 | 0.00 | 0.00 | 99 | 1010.6 |
| 20260904051805 | 21 | 157 | 0.0 | 0.0 | 0.00 | 0.00 | 0.00 | 99 | 1010.6 |
| 20260904051300 | 21 | 157 | 0.0 | 0.0 | 0.00 | 0.00 | 0.00 | 99 | 1010.6 |
| 20260904050750 | 21 | 157 | 0.0 | 0.0 | 0.00 | 0.00 | 0.00 | 99 | 1010.8 |
| 20260904050246 | 21 | 157 | 0.0 | 0.0 | 0.00 | 0.00 | 0.00 | 99 | 1010.7 |
| 20260904045741 | 21 | 157 | 0.0 | 0.0 | 0.00 | 0.00 | 0.00 | 99 | 1010.5 |
| 20260904045235 | 21 | 157 | 0.0 | 0.0 | 0.00 | 0.00 | 0.00 | 99 | 1010.7 |
| 20260904044730 | 21 | 157 | 0.0 | 0.0 | 0.00 | 0.00 | 0.00 | 99 | 1010.5 |
| 20260904044221 | 21 | 157 | 0.0 | 0.0 | 0.00 | 0.00 | 0.00 | 99 | 1010.4 |
| 20260904043717 | 21 | 156 | 1.6 | 1.6 | 0.00 | 0.00 | 0.00 | 99 | 1010.6 |
| 20260904043213 | 21 | 157 | 0.0 | 0.0 | 0.00 | 0.00 | 0.00 | 99 | 1010.7 |
| 20260904042708 | 21 | 157 | 0.0 | 0.0 | 0.00 | 0.00 | 0.00 | 99 | 1010.6 |
| 20260904042205 | 21 | 157 | 0.0 | 0.0 | 0.00 | 0.00 | 0.00 | 99 | 1010.8 |
| 20260904041704 | 21 | 157 | 0.0 | 0.0 | 0.00 | 0.00 | 0.00 | 99 | 1011.0 |
| 20260904041201 | 21 | 157 | 0.0 | 0.0 | 0.00 | 0.00 | 0.00 | 99 | 1011.1 |
| 20260904040656 | 21 | 157 | 0.0 | 0.0 | 0.00 | 0.00 | 0.00 | 99 | 1011.1 |
| 20260904040152 | 21 | 157 | 1.6 | 1.6 | 0.00 | 0.00 | 0.00 | 99 | 1011.1 |
| 20260904035648 | 21 | 157 | 0.0 | 1.6 | 0.00 | 0.66 | 0.66 | 99 | 1011.2 |
| 20260904035143 | 21 | 157 | 0.0 | 0.0 | 0.00 | 0.66 | 0.66 | 99 | 1011.2 |
| 20260904034642 | 21 | 157 | 0.0 | 0.0 | 0.00 | 0.66 | 0.66 | 99 | 1011.4 |
| 20260904034138 | 21 | 157 | 0.0 | 1.6 | 0.00 | 0.66 | 0.66 | 99 | 1011.6 |
| 20260904033634 | 21 | 157 | 0.0 | 0.0 | 0.00 | 0.66 | 0.66 | 99 | 1011.5 |
| 20260904033131 | 21 | 157 | 0.0 | 0.0 | 0.00 | 0.66 | 0.66 | 99 | 1011.4 |
| 20260904032626 | 21 | 157 | 0.0 | 0.0 | 0.00 | 0.66 | 0.66 | 99 | 1011.0 |
| 20260904032125 | 21 | 157 | 0.0 | 0.0 | 0.00 | 0.66 | 0.66 | 99 | 1011.0 |
| 20260904031624 | 21 | 157 | 0.0 | 0.0 | 0.00 | 0.66 | 0.66 | 99 | 1010.9 |
| 20260904031120 | 21 | 157 | 1.6 | 1.6 | 0.00 | 0.66 | 0.66 | 99 | 1010.9 |
| 20260904030616 | 21 | 157 | 0.0 | 0.0 | 0.00 | 0.66 | 0.66 | 99 | 1010.9 |
| 20260904030111 | 21 | 157 | 0.0 | 1.6 | 0.00 | 0.66 | 0.66 | 99 | 1010.7 |
| 20260904025607 | 21 | 157 | 0.0 | 0.0 | 0.00 | 0.66 | 0.66 | 99 | 1010.9 |
| 20260904025101 | 21 | 157 | 0.0 | 1.6 | 0.00 | 0.66 | 0.66 | 99 | 1011.1 |
| 20260904024557 | 21 | 157 | 1.6 | 1.6 | 0.00 | 0.66 | 0.66 | 99 | 1011.4 |
| 20260904024052 | 21 | 157 | 0.0 | 0.0 | 0.00 | 0.66 | 0.66 | 99 | 1011.4 |
| 20260904023548 | 21 | 157 | 0.0 | 0.0 | 0.00 | 0.66 | 0.66 | 99 | 1011.7 |
| 20260904023044 | 21 | 157 | 0.0 | 1.6 | 0.00 | 0.66 | 0.66 | 99 | 1011.6 |
| 20260904022539 | 21 | 157 | 0.0 | 0.0 | 0.00 | 0.66 | 0.66 | 99 | 1011.6 |
| 20260904022036 | 21 | 157 | 0.0 | 0.0 | 0.00 | 0.66 | 0.66 | 99 | 1011.6 |
| 20260904021531 | 22 | 156 | 0.0 | 0.0 | 0.61 | 0.66 | 0.66 | 99 | 1011.7 |
| 20260904021026 | 22 | 157 | 0.0 | 0.0 | 1.37 | 0.66 | 0.66 | 99 | 1012.0 |
| 20260904020521 | 22 | 183 | 0.0 | 0.0 | 0.89 | 0.58 | 0.58 | 99 | 1012.3 |
| 20260904020021 | 22 | 187 | 3.2 | 4.8 | 0.00 | 0.43 | 0.43 | 99 | 1012.3 |
| 20260904015515 | 22 | 150 | 0.0 | 0.0 | 0.00 | 0.43 | 0.43 | 99 | 1012.1 |
| 20260904015014 | 22 | 150 | 0.0 | 0.0 | 0.00 | 0.43 | 0.43 | 99 | 1012.2 |
| 20260904014508 | 22 | 150 | 0.0 | 0.0 | 0.00 | 0.43 | 0.43 | 99 | 1012.2 |
| 20260904014004 | 22 | 150 | 0.0 | 0.0 | 0.00 | 0.43 | 0.43 | 99 | 1012.0 |
| 20260904013500 | 22 | 150 | 0.0 | 0.0 | 0.00 | 0.43 | 0.43 | 99 | 1012.0 |
| 20260904012956 | 22 | 150 | 1.6 | 1.6 | 0.00 | 0.43 | 0.43 | 99 | 1012.1 |
| 20260904012456 | 22 | 150 | 1.6 | 1.6 | 0.00 | 0.43 | 0.43 | 99 | 1012.2 |
| 20260904011950 | 22 | 150 | 0.0 | 0.0 | 0.00 | 0.43 | 0.43 | 99 | 1012.1 |
| 20260904011445 | 22 | 149 | 0.0 | 0.0 | 0.00 | 0.43 | 0.43 | 99 | 1012.1 |
| 20260904010940 | 22 | 159 | 0.0 | 0.0 | 0.00 | 0.43 | 0.43 | 99 | 1012.1 |
| 20260904010437 | 22 | 176 | 0.0 | 0.0 | 0.00 | 0.43 | 0.43 | 99 | 1012.0 |
| 20260904005931 | 22 | 178 | 1.6 | 1.6 | 0.00 | 0.43 | 0.43 | 99 | 1012.2 |
| 20260904005427 | 22 | 154 | 1.6 | 1.6 | 0.00 | 0.43 | 0.43 | 99 | 1012.2 |
| 20260904004921 | 22 | 154 | 0.0 | 0.0 | 0.00 | 0.43 | 0.43 | 99 | 1012.0 |
| 20260904004418 | 22 | 154 | 0.0 | 1.6 | 0.00 | 0.43 | 0.43 | 99 | 1011.7 |
| 20260904003913 | 22 | 154 | 0.0 | 0.0 | 0.00 | 0.43 | 0.43 | 99 | 1011.6 |
| 20260904003409 | 22 | 153 | 1.6 | 1.6 | 0.00 | 0.43 | 0.43 | 99 | 1011.3 |
| 20260904002903 | 22 | 152 | 0.0 | 0.0 | 0.00 | 0.43 | 0.43 | 99 | 1011.3 |
| 20260904002400 | 22 | 152 | 1.6 | 1.6 | 0.00 | 0.43 | 0.43 | 99 | 1011.3 |
| 20260904001859 | 22 | 153 | 0.0 | 1.6 | 0.00 | 0.43 | 0.43 | 99 | 1011.7 |
| 20260904001355 | 22 | 152 | 0.0 | 0.0 | 0.00 | 0.43 | 0.43 | 99 | 1011.7 |
| 20260904000849 | 22 | 152 | 0.0 | 0.0 | 0.00 | 0.43 | 0.43 | 99 | 1011.7 |
| 20260904000348 | 22 | 152 | 0.0 | 0.0 | 0.00 | 0.43 | 0.43 | 99 | 1011.8 |
| 20260903235843 | 22 | 152 | 0.0 | 0.0 | 0.00 | 0.43 | 0.43 | 99 | 1011.6 |
| 20260903235339 | 22 | 152 | 0.0 | 0.0 | 0.00 | 0.43 | 0.43 | 99 | 1011.5 |
| 20260903234838 | 22 | 152 | 0.0 | 0.0 | 0.00 | 0.43 | 0.43 | 99 | 1011.7 |
| 20260903234335 | 22 | 152 | 0.0 | 0.0 | 0.00 | 0.43 | 0.43 | 99 | 1011.5 |
| 20260903233831 | 22 | 152 | 0.0 | 0.0 | 0.00 | 0.43 | 0.43 | 99 | 1011.6 |
| 20260903233327 | 22 | 152 | 0.0 | 0.0 | 0.00 | 0.43 | 0.43 | 99 | 1011.6 |
| 20260903232826 | 22 | 152 | 0.0 | 0.0 | 0.00 | 0.43 | 0.43 | 99 | 1011.4 |
| 20260903232321 | 22 | 152 | 0.0 | 0.0 | 0.00 | 0.43 | 0.43 | 99 | 1011.2 |
| 20260903231820 | 22 | 152 | 0.0 | 0.0 | 0.00 | 0.43 | 0.43 | 99 | 1011.2 |
| 20260903231316 | 22 | 152 | 0.0 | 0.0 | 0.00 | 0.43 | 0.43 | 99 | 1011.4 |
| 20260903230811 | 23 | 152 | 0.0 | 0.0 | 0.00 | 0.43 | 0.43 | 99 | 1011.4 |
| 20260903230307 | 23 | 152 | 0.0 | 0.0 | 0.00 | 0.43 | 0.43 | 99 | 1011.2 |
| 20260903225803 | 23 | 152 | 0.0 | 0.0 | 0.00 | 0.43 | 0.43 | 98 | 1011.1 |
| 20260903225258 | 23 | 152 | 0.0 | 0.0 | 0.00 | 0.43 | 0.43 | 98 | 1010.9 |
| 20260903224755 | 23 | 152 | 0.0 | 0.0 | 0.00 | 0.43 | 0.43 | 97 | 1011.0 |
| 20260903224250 | 23 | 145 | 0.0 | 0.0 | 0.00 | 0.43 | 0.43 | 97 | 1011.1 |
| 20260903223746 | 24 | 145 | 0.0 | 1.6 | 0.00 | 0.43 | 0.43 | 96 | 1010.9 |
| 20260903223244 | 24 | 145 | 0.0 | 0.0 | 0.00 | 0.43 | 0.43 | 96 | 1011.0 |
| 20260903222739 | 25 | 145 | 0.0 | 0.0 | 0.00 | 0.43 | 0.43 | 96 | 1011.2 |
| 20260903222238 | 25 | 145 | 0.0 | 0.0 | 0.00 | 0.43 | 0.43 | 95 | 1011.3 |
| 20260903221733 | 25 | 145 | 0.0 | 0.0 | 0.00 | 0.43 | 0.43 | 94 | 1011.1 |
| 20260903221232 | 25 | 145 | 0.0 | 0.0 | 0.00 | 0.43 | 0.43 | 93 | 1011.3 |
| 20260903220730 | 25 | 145 | 0.0 | 0.0 | 0.00 | 0.43 | 0.43 | 94 | 1011.3 |
| 20260903220225 | 25 | 145 | 0.0 | 0.0 | 0.00 | 0.43 | 0.43 | 92 | 1011.2 |